User: anonymous   Login
Location: *
(51.5000°N, 0.1100°W)
Time: 17:28:21
(UTC+00:00)
Language:

Cosmos 1356 Rocket - Orbit

View from above orbital plane
View from above orbital plane
View from above satellite
View from above satellite

Ground track
Ground track

The orbit data is extracted from the following two-line orbital elements,

1 13154U 82039B   24204.92484126  .00005666  00000-0  40024-3 0  9990
2 13154  81.1810 177.6556 0037458 114.2088 246.3057 15.04185390292021
Epoch (UTC): 22 July 2024 22:11:46
Eccentricity: 0.0037458
inclination: 81.1810°
perigee height: 528 km
apogee height: 580 km
right ascension of ascending node: 177.6556°
argument of perigee: 114.2088°
revolutions per day: 15.04185390
mean anomaly at epoch: 246.3057°
orbit number at epoch: 29202

The dashed part of the orbit path shows where the satellite is in the earth's shadow,  

DLR